Malibu Past Weather

Last 30 Days

High: 58ºf @4:55 PM    Low: 47ºf @12:55 AM     Approx. Precipitation / Rain Total: in.
Time (PDT)Temp. (ºf)Humidity (%)Dew Point (ºf)Barometer (inHG)Wind Speed (mph)Wind DirectionWind Gust (mph)1hr. Precip / Rain Total (in.)Snow Depth
4:55 PM588553.51-3.48sw6.95--
3:55 PM579054.09-5.21wsw12.17--
2:55 PM569354-1.74sw12.17--
1:55 PM549352.02-3.48ene12.17--
12:55 PM548950.83-7.82e11.3--
11:55 AM558851.51-6.95e12.17--
10:55 AM558650.89-8.69ese13.03--
9:55 AM548750.22-10.43e14.77--
8:55 AM549051.13-8.69e12.17--
7:55 AM519649.9-3.48ne6.08--
6:55 AM509648.9-2.61ne8.69--
5:55 AM509648.9-4.34ne8.69--
4:55 AM499547.63-5.21ne7.82--
3:55 AM499447.35-4.34ne8.69--
2:55 AM498945.9-5.21n8.69--
1:55 AM498544.69-6.08-8.69--
12:55 AM478743.33-6.95n9.56--
High: 59ºf @9:55 AM    Low: 46ºf @11:55 PM     Approx. Precipitation / Rain Total: in.
Time (PDT)Temp. (ºf)Humidity (%)Dew Point (ºf)Barometer (inHG)Wind Speed (mph)Wind DirectionWind Gust (mph)1hr. Precip / Rain Total (in.)Snow Depth
11:55 PM468541.75-7.82n9.56--
10:55 PM478041.16-5.21n7.82--
9:55 PM497441.08-5.21nnw6.95--
8:55 PM497541.43-4.34wnw6.08--
7:55 PM507241.33-3.48nw13.03--
6:55 PM517543.36-5.21wnw14.77--
5:55 PM507843.41-8.69nnw19.99--
4:55 PM508746.28-9.56nw19.12--
3:55 PM569654.87-6.95e13.9--
2:55 PM569654.87-6.95e14.77--
1:55 PM579555.58-6.95se19.99--
12:55 PM597952.49-10.43e15.64--
11:55 AM588152.2-10.43e15.64--
10:55 AM597551.08-10.43e16.51--
9:55 AM597551.08-8.69e15.64--
8:55 AM596948.84-11.3e15.64--
7:55 AM586947.89-10.43ene16.51--
6:55 AM587349.39-9.56ene16.51--
5:55 AM587048.27-6.95ene12.17--
4:55 AM587349.39-6.95ene11.3--
3:55 AM577850.21-5.21e9.56--
2:55 AM587750.83-6.08e11.3--
1:55 AM587449.76-6.08ene10.43--
12:55 AM586947.89-6.95ene10.43--
High: 60ºf @3:55 PM    Low: 53ºf @4:55 AM     Approx. Precipitation / Rain Total: in.
Time (PDT)Temp. (ºf)Humidity (%)Dew Point (ºf)Barometer (inHG)Wind Speed (mph)Wind DirectionWind Gust (mph)1hr. Precip / Rain Total (in.)Snow Depth
11:55 PM578452.21-4.34ene8.69--
10:55 PM588352.86-4.34e14.77--
9:55 PM578452.21-6.08ene11.3--
8:55 PM588352.86-6.95e11.3--
7:55 PM578552.53-6.08e11.3--
6:55 PM588553.51-6.95e10.43--
5:55 PM588252.53-6.95e9.56--
4:55 PM588252.53-5.21ese8.69--
3:55 PM607652.41-6.08e8.69--
2:55 PM607652.41-6.08e8.69--
1:55 PM597852.15-5.21e7.82--
12:55 PM588252.53-4.34e6.95--
11:55 AM588252.53-2.61ese7.82--
10:55 AM568551.55-6.08e8.69--
9:55 AM549151.43-5.21ese9.56--
8:55 AM549151.43-6.08ese8.69--
7:55 AM539551.61-5.21ese11.3--
6:55 AM539752.17-7.82e11.3--
5:55 AM539852.45-6.08e9.56--
4:55 AM539852.45-5.21ene8.69--
3:55 AM539952.73-3.48ese6.95--
2:55 AM539952.73-4.34ese7.82--
1:55 AM5310053-5.21e8.69--
12:55 AM5310053-4.34se8.69--
High: 60ºf @3:55 PM    Low: 51ºf @6:55 AM     Approx. Precipitation / Rain Total: in.
Time (PDT)Temp. (ºf)Humidity (%)Dew Point (ºf)Barometer (inHG)Wind Speed (mph)Wind DirectionWind Gust (mph)1hr. Precip / Rain Total (in.)Snow Depth
11:55 PM5310053-5.21ese12.17--
10:55 PM549953.72-8.69ese15.64--
9:55 PM549853.45-7.82e13.03--
8:55 PM549652.88---4.34--
7:55 PM559653.88-0.87w13.9--
3:55 PM608354.82-13.03wsw17.38--
2:55 PM598654.82-9.56wsw13.03--
1:55 PM598554.49-6.95wsw8.69--
12:55 PM598654.82-6.08sw7.82--
10:55 AM578953.79-2.61s5.21--
8:55 AM549652.88-1.74s3.48--
7:55 AM529751.17---5.21--
6:55 AM519649.9-4.34n5.21--
5:55 AM519349.05-2.61nne5.21--
4:55 AM519349.05-3.48ne10.43--
3:55 AM529450.33-5.21nne8.69--
2:55 AM549552.6-1.74nne3.48--
1:55 AM549051.13---5.21--
12:55 AM558751.2-4.34w5.21--
High: 66ºf @1:55 PM    Low: 54ºf @5:55 AM     Approx. Precipitation / Rain Total: in.
Time (PDT)Temp. (ºf)Humidity (%)Dew Point (ºf)Barometer (inHG)Wind Speed (mph)Wind DirectionWind Gust (mph)1hr. Precip / Rain Total (in.)Snow Depth
11:55 PM557647.57---4.34--
10:55 PM568451.23-4.34ne6.08--
9:55 PM578953.79-0.87ne2.61--
8:55 PM588754.15---2.61--
7:55 PM598654.82-1.74nnw9.56--
6:55 PM618255.46-6.08w9.56--
5:55 PM647957.35-6.95wsw10.43--
4:55 PM657657.24-6.95wsw9.56--
3:55 PM657356.13-5.21wsw6.95--
2:55 PM657456.5-2.61s5.21--
1:55 PM667457.47-2.61se4.34--
12:55 PM657054.97-2.61e6.08--
11:55 AM656251.66-3.48e6.95--
10:55 AM656452.52-1.74e5.21--
9:55 AM646652.41-3.48e6.08--
8:55 AM645346.52-1.74e4.34--
7:55 AM625143.66-2.61nne8.69--
6:55 AM555840.5-5.21nne8.69--
5:55 AM545839.56-6.08nne9.56--
4:55 AM575139.05-4.34n8.69--
3:55 AM565439.59-5.21nne6.95--
2:55 AM584938.95-3.48nne6.95--
1:55 AM594939.87-5.21n7.82--
12:55 AM604639.16-5.21nne8.69--
High: 81ºf @11:55 AM    Low: 57ºf @4:55 AM     Approx. Precipitation / Rain Total: in.
Time (PDT)Temp. (ºf)Humidity (%)Dew Point (ºf)Barometer (inHG)Wind Speed (mph)Wind DirectionWind Gust (mph)1hr. Precip / Rain Total (in.)Snow Depth
11:55 PM624741.54-2.61ne11.3--
10:55 PM623936.76-3.48nne11.3--
9:55 PM633736.32-5.21w11.3--
8:55 PM682732.77-5.21wnw13.9--
7:55 PM701824.55-6.95nnw13.03--
6:55 PM721724.8-6.08nw13.9--
5:55 PM761930.76-6.08wnw15.64--
4:55 PM743544.6-10.43w19.12--
3:55 PM782236.06-12.17w19.99--
2:55 PM772437.43-13.03w19.12--
1:55 PM724147-9.56wsw13.9--
12:55 PM714347.36-4.34se12.17--
11:55 AM811833.48-5.21ne16.51--
10:55 AM792034.49-5.21ne15.64--
9:55 AM752031.2-8.69ne15.64--
8:55 AM722231.07-9.56ene17.38--
7:55 AM672832.82-6.95ne13.9--
6:55 AM603230.06-6.95ne11.3--
5:55 AM573831.65-6.95nne13.03--
4:55 AM573730.99-7.82nne13.03--
3:55 AM603028.48-8.69n13.03--
2:55 AM632728.5-7.82n14.77--
1:55 AM613432.43-8.69n13.03--
12:55 AM603934.97-8.69n12.17--
High: 72ºf @3:55 PM    Low: 49ºf @4:55 AM     Approx. Precipitation / Rain Total: in.
Time (PDT)Temp. (ºf)Humidity (%)Dew Point (ºf)Barometer (inHG)Wind Speed (mph)Wind DirectionWind Gust (mph)1hr. Precip / Rain Total (in.)Snow Depth
11:55 PM624238.64-7.82n13.03--
10:55 PM624741.54-7.82n12.17--
9:55 PM634541.32-7.82n11.3--
8:55 PM625545.64-5.21wnw14.77--
7:55 PM644743.36-6.95wnw14.77--
6:55 PM673639.16-6.08wnw17.38--
5:55 PM703137.97-6.95wnw16.51--
4:55 PM723341.31-6.95wnw18.25--
3:55 PM723542.84-10.43wnw19.12--
2:55 PM675449.8-12.17w20.86--
1:55 PM694747.92-13.03w19.99--
12:55 PM675349.3-13.9w20.86--
11:55 AM655246.94-11.3w17.38--
10:55 AM634038.3-11.3w16.51--
9:55 AM635446.09-7.82wsw12.17--
8:55 AM614941.7-3.48wsw6.95--
7:55 AM564937.11-6.08n11.3--
6:55 AM505534.48-6.95n11.3--
5:55 AM495734.44-6.95-9.56--
4:55 AM495433.09-6.08-8.69--
3:55 AM495633.99-5.21n7.82--
2:55 AM505835.81-6.08n9.56--
1:55 AM506739.48-6.08n9.56--
12:55 AM496939.28-4.34n5.21--
High: 61ºf @2:55 PM    Low: 46ºf @5:55 AM     Approx. Precipitation / Rain Total: in.
Time (PDT)Temp. (ºf)Humidity (%)Dew Point (ºf)Barometer (inHG)Wind Speed (mph)Wind DirectionWind Gust (mph)1hr. Precip / Rain Total (in.)Snow Depth
11:55 PM535838.62-2.61n6.08--
10:55 PM545839.56-4.34nnw8.69--
9:55 PM526641-6.08n8.69--
8:55 PM537846.33-2.61nnw6.08--
7:55 PM538247.65-4.34nw12.17--
6:55 PM567748.89-7.82w13.9--
5:55 PM607050.18-9.56wsw14.77--
4:55 PM596446.84-9.56wsw13.9--
3:55 PM615946.57-9.56wsw13.9--
2:55 PM616448.73-10.43wsw13.9--
1:55 PM606246.94-7.82wsw10.43--
12:55 PM606447.78-6.08wsw7.82--
11:55 AM606548.2-3.48sse6.08--
10:55 AM596748.06-3.48se5.21--
9:55 AM606548.2-2.61ese5.21--
8:55 AM586044.19-2.61ese6.08--
7:55 AM526540.6-3.48ne10.43--
6:55 AM477138.09-7.82n10.43--
5:55 AM467438.18-5.21nne11.3--
4:55 AM467237.49-3.48ne11.3--
3:55 AM476836.99-6.95n11.3--
2:55 AM476937.36-6.95nne11.3--
1:55 AM486536.8-7.82n12.17--
12:55 AM486637.19-8.69n12.17--
High: 61ºf @2:55 PM    Low: 43ºf @6:55 AM     Approx. Precipitation / Rain Total: in.
Time (PDT)Temp. (ºf)Humidity (%)Dew Point (ºf)Barometer (inHG)Wind Speed (mph)Wind DirectionWind Gust (mph)1hr. Precip / Rain Total (in.)Snow Depth
11:55 PM496838.9-7.82n10.43--
10:55 PM496838.9-6.08n10.43--
9:55 PM506538.7-6.95n10.43--
8:55 PM506036.67-4.34n8.69--
7:55 PM516338.85-3.48nw6.95--
6:55 PM555940.94-5.21w12.17--
5:55 PM585742.85-8.69wsw13.9--
4:55 PM595643.32-9.56wsw14.77--
3:55 PM605242.32-7.82w13.03--
2:55 PM614640.07-7.82wsw11.3--
1:55 PM605141.82-5.21wsw7.82--
12:55 PM605141.82-4.34sw6.95--
11:55 AM595140.9-4.34s6.08--
10:55 AM595140.9-2.61se5.21--
9:55 AM575540.99-3.48ese5.21--
8:55 AM575440.52-1.74ne9.56--
7:55 AM506036.67-6.08nne10.43--
6:55 AM437033.9-6.95n11.3--
5:55 AM446834.13-7.82n12.17--
4:55 AM446733.76-7.82n11.3--
3:55 AM456734.71-6.08n11.3--
2:55 AM466735.67-6.08n7.82--
1:55 AM496035.73-4.34nnw7.82--
12:55 AM496035.73-2.61nnw11.3--
High: 58ºf @2:55 PM    Low: 45ºf @6:55 AM     Approx. Precipitation / Rain Total: in.
Time (PDT)Temp. (ºf)Humidity (%)Dew Point (ºf)Barometer (inHG)Wind Speed (mph)Wind DirectionWind Gust (mph)1hr. Precip / Rain Total (in.)Snow Depth
11:55 PM496236.55-7.82nw11.3--
10:55 PM506137.09-5.21nnw13.03--
9:55 PM506036.67-6.08nw17.38--
8:55 PM515836.75-7.82nw18.25--
7:55 PM526339.8-9.56wnw20.86--
6:55 PM536641.95-9.56wnw22.59--
5:55 PM555940.94-13.03w22.59--
4:55 PM575842.37-13.03w26.07--
3:55 PM585541.92-14.77w26.07--
2:55 PM585742.85-16.51w29.55--
1:55 PM585642.39-14.77w22.59--
12:55 PM585742.85-13.9w19.99--
11:55 AM576444.94-9.56wsw13.9--
10:55 AM556744.25-6.95wsw13.03--
9:55 AM557145.77-4.34se6.95--
8:55 AM508144.4-3.48ene6.95--
7:55 AM498945.9-3.48ne6.95--
6:55 AM459142.53-4.34n7.82--
5:55 AM468942.94-5.21n7.82--
4:55 AM469043.23-5.21nw8.69--
3:55 AM468040.18-4.34n10.43--
2:55 AM457738.23-6.95n8.69--
1:55 AM487239.41-5.21nnw10.43--
12:55 AM486938.32-4.34nnw12.17--
High: 62ºf @2:55 PM    Low: 49ºf @9:55 PM     Approx. Precipitation / Rain Total: in.
Time (PDT)Temp. (ºf)Humidity (%)Dew Point (ºf)Barometer (inHG)Wind Speed (mph)Wind DirectionWind Gust (mph)1hr. Precip / Rain Total (in.)Snow Depth
11:55 PM507241.33-7.82wnw14.77--
10:55 PM516941.19-6.08w11.3--
9:55 PM496838.9-5.21nw11.3--
8:55 PM507843.41-5.21nw15.64--
7:55 PM516740.43-5.21nw15.64--
6:55 PM536240.33-7.82wnw16.51--
5:55 PM537043.48-6.08wnw12.17--
4:55 PM546843.68-8.69wnw19.99--
3:55 PM567347.47-13.03w22.59--
2:55 PM626047.95-9.56wsw15.64--
1:55 PM596547.25-6.95w13.9--
12:55 PM577850.21-3.48ssw6.95--
11:55 AM607250.94-6.08ese8.69--
10:55 AM597249.98-3.48se6.08--
9:55 AM587650.48-4.34e6.08--
8:55 AM567849.24-4.34s8.69--
7:55 AM558149.28-6.08s8.69--
6:55 AM558751.2-4.34ene7.82--
5:55 AM549251.73-2.61nne4.34--
4:55 AM549051.13-0.87n5.21--
3:55 AM529049.16-2.61n7.82--
2:55 AM529149.45-3.48nne6.95--
1:55 AM529049.16-4.34n8.69--
12:55 AM549151.43-2.61nnw6.08--
High: 66ºf @12:55 PM    Low: 53ºf @10:55 PM     Approx. Precipitation / Rain Total: in.
Time (PDT)Temp. (ºf)Humidity (%)Dew Point (ºf)Barometer (inHG)Wind Speed (mph)Wind DirectionWind Gust (mph)1hr. Precip / Rain Total (in.)Snow Depth
11:55 PM538849.54-1.74nnw6.95--
10:55 PM538648.92-2.61n6.08--
9:55 PM548850.53-2.61nw8.69--
8:55 PM558550.57-5.21wnw11.3--
7:55 PM568752.18-6.95w12.17--
6:55 PM598052.84-6.95w16.51--
5:55 PM617954.44-12.17w17.38--
4:55 PM637655.31-13.9w19.12--
3:55 PM647455.54-13.9w18.25--
2:55 PM657356.13-11.3w17.38--
1:55 PM657456.5-10.43w15.64--
12:55 PM667055.93-7.82wsw10.43--
11:55 AM656653.36-8.69wsw10.43--
10:55 AM647254.79-6.95wsw8.69--
9:55 AM646953.62-3.48wsw6.08--
8:55 AM636852.27-2.61sw4.34--
7:55 AM626550.1-1.74w4.34--
6:55 AM546944.06-1.74nne7.82--
5:55 AM556543.45-6.08n12.17--
4:55 AM556844.63-6.08n9.56--
3:55 AM547144.81-3.48n6.95--
2:55 AM547345.54-6.95n8.69--
1:55 AM556844.63-4.34nne6.95--
12:55 AM585742.85-0.87n6.08--
High: 67ºf @1:55 PM    Low: 52ºf @3:55 AM     Approx. Precipitation / Rain Total: in.
Time (PDT)Temp. (ºf)Humidity (%)Dew Point (ºf)Barometer (inHG)Wind Speed (mph)Wind DirectionWind Gust (mph)1hr. Precip / Rain Total (in.)Snow Depth
11:55 PM586044.19-0.87nw4.34--
10:55 PM585943.75-2.61n6.08--
9:55 PM595844.24-1.74nne7.82--
8:55 PM624640.98-3.48nnw8.69--
7:55 PM635044.06-5.21wnw13.9--
6:55 PM627252.87-10.43w17.38--
5:55 PM665951.25-9.56w15.64--
4:55 PM666553.89-8.69wsw13.03--
3:55 PM667256.71-7.82wsw11.3--
2:55 PM666754.72-7.82wsw10.43--
1:55 PM676655.26-6.08wsw8.69--
12:55 PM656653.36-2.61sse6.08--
11:55 AM656753.77-2.61sse5.21--
10:55 AM645949.38-2.61sse4.34--
9:55 AM626750.91-4.34sw7.82--
8:55 AM626148.39-2.61ssw4.34--
7:55 AM606347.37-1.74wsw6.08--
6:55 AM556443.05-1.74wnw8.69--
5:55 AM546341.69-1.74nnw7.82--
4:55 AM527042.52-6.08n8.69--
3:55 AM526942.15-6.95n9.56--
2:55 AM557145.77-1.74n6.95--
1:55 AM585943.75-4.34n9.56--
12:55 AM566945.97-5.21nne7.82--
High: 65ºf @4:55 PM    Low: 51ºf @6:55 AM     Approx. Precipitation / Rain Total: in.
Time (PDT)Temp. (ºf)Humidity (%)Dew Point (ºf)Barometer (inHG)Wind Speed (mph)Wind DirectionWind Gust (mph)1hr. Precip / Rain Total (in.)Snow Depth
11:55 PM557948.61-3.48n6.08--
10:55 PM578151.23-3.48nw9.56--
9:55 PM596547.25-4.34wnw12.17--
8:55 PM624540.41-6.95nw16.51--
7:55 PM624942.62-7.82nw13.03--
6:55 PM625445.16-6.95wnw13.9--
5:55 PM637153.44-7.82w15.64--
4:55 PM656352.09-9.56w16.51--
3:55 PM627553.98-13.03wsw18.25--
2:55 PM637354.2-10.43wsw14.77--
1:55 PM637253.83-8.69wsw13.9--
12:55 PM637354.2-8.69wsw13.03--
11:55 AM646953.62-7.82w12.17--
10:55 AM646049.83-2.61se5.21--
9:55 AM636249.77-3.48wsw5.21--
8:55 AM607050.18-2.61sw4.34--
7:55 AM567648.54-3.48nnw8.69--
6:55 AM518546.65-6.95n10.43--
5:55 AM518747.27-4.34n9.56--
4:55 AM528748.25-4.34n8.69--
3:55 AM528647.94-3.48-6.95--
2:55 AM528748.25-6.08n7.82--
1:55 AM528748.25-5.21n6.95--
12:55 AM528748.25-3.48n7.82--
High: 60ºf @10:55 AM    Low: 51ºf @10:55 PM     Approx. Precipitation / Rain Total: in.
Time (PDT)Temp. (ºf)Humidity (%)Dew Point (ºf)Barometer (inHG)Wind Speed (mph)Wind DirectionWind Gust (mph)1hr. Precip / Rain Total (in.)Snow Depth
11:55 PM528948.86-5.21n6.95--
10:55 PM518947.87-4.34n5.21--
9:55 PM528848.56-3.48n9.56--
8:55 PM528647.94-6.08n10.43--
7:55 PM528647.94-7.82n11.3--
6:55 PM558851.51---7.82--
5:55 PM587851.18-5.21e9.56--
4:55 PM577950.55-6.95e11.3--
3:55 PM588152.2-5.21e12.17--
2:55 PM597852.15-7.82ese13.9--
1:55 PM607552.05-9.56ese13.9--
12:55 PM607351.32-9.56ese16.51--
11:55 AM596948.84-12.17e18.25--
10:55 AM606949.8-13.03e19.99--
9:55 AM597249.98-6.95e13.03--
7:55 AM528848.56-6.95ne12.17--
6:55 AM518847.57-6.08ene12.17--
5:55 AM528748.25-6.08ene12.17--
4:55 AM528547.63-6.95ene16.51--
3:55 AM529049.16-5.21ene12.17--
2:55 AM529049.16-6.08ene12.17--
1:55 AM528848.56-8.69ene16.51--
12:55 AM528948.86-9.56ene19.12--
High: 57ºf @1:55 PM    Low: 52ºf @6:55 AM     Approx. Precipitation / Rain Total: in.
Time (PDT)Temp. (ºf)Humidity (%)Dew Point (ºf)Barometer (inHG)Wind Speed (mph)Wind DirectionWind Gust (mph)1hr. Precip / Rain Total (in.)Snow Depth
11:55 PM538749.23-8.69ene19.12--
10:55 PM529049.16-11.3e19.99--
9:55 PM529049.16-13.03ene19.99--
8:55 PM539050.15-13.03e23.46--
7:55 PM539150.44-11.3ene22.59--
6:55 PM549051.13-12.17e23.46--
5:55 PM558349.93-13.9e19.99--
4:55 PM577850.21-13.03e21.72--
3:55 PM568451.23-13.9e19.12--
2:55 PM568952.8-10.43e16.51--
1:55 PM578452.21-12.17e16.51--
12:55 PM578753.17-11.3e16.51--
11:55 AM559052.12-11.3e15.64--
10:55 AM578552.53-6.08ese9.56--
9:55 AM578050.89-1.74ese4.34--
8:55 AM558751.2-0.87w5.21--
7:55 AM529149.45-2.61wnw8.69--
6:55 AM529149.45-4.34wnw11.3--
5:55 AM539852.45-2.61wnw8.69--
4:55 AM549452.31-3.48e13.03--
3:55 AM549753.17-9.56ene15.64--
2:55 AM559954.72-7.82se14.77--
1:55 AM559854.44-7.82se14.77--
12:55 AM569454.3-8.69se18.25--
High: 59ºf @1:55 PM    Low: 48ºf @3:55 AM     Approx. Precipitation / Rain Total: in.
Time (PDT)Temp. (ºf)Humidity (%)Dew Point (ºf)Barometer (inHG)Wind Speed (mph)Wind DirectionWind Gust (mph)1hr. Precip / Rain Total (in.)Snow Depth
11:55 PM568952.8-12.17ese19.12--
10:55 PM558751.2-9.56ene15.64--
9:55 PM567748.89-10.43ene14.77--
8:55 PM567949.58-6.95e12.17--
7:55 PM568150.25-7.82e12.17--
6:55 PM568350.91-6.95e12.17--
5:55 PM577950.55-6.08se9.56--
4:55 PM577549.15-6.08e8.69--
3:55 PM587148.65-5.21ese7.82--
2:55 PM596848.45-5.21ese8.69--
1:55 PM596647.66-4.34ese6.08--
12:55 PM596547.25-4.34s6.95--
11:55 AM586747.1-3.48s6.08--
10:55 AM586947.89-3.48sse5.21--
9:55 AM587750.83-3.48se5.21--
8:55 AM548649.91-1.74sse6.95--
7:55 AM528948.86-5.21sw7.82--
6:55 AM508746.28-4.34nne6.95--
5:55 AM498745.3-5.21nne8.69--
4:55 AM488944.91-6.08n9.56--
3:55 AM489045.21-6.95-9.56--
2:55 AM499046.2-6.08n7.82--
1:55 AM498845.6-6.08n8.69--
12:55 AM498845.6-6.08-9.56--
High: 63ºf @3:55 PM    Low: 49ºf @11:55 PM     Approx. Precipitation / Rain Total: in.
Time (PDT)Temp. (ºf)Humidity (%)Dew Point (ºf)Barometer (inHG)Wind Speed (mph)Wind DirectionWind Gust (mph)1hr. Precip / Rain Total (in.)Snow Depth
11:55 PM498645-6.95n9.56--
10:55 PM508645.98-6.95n8.69--
9:55 PM538147.33-3.48nnw9.56--
8:55 PM548148.3-5.21nw7.82--
7:55 PM558249.61-5.21w11.3--
6:55 PM567548.19-8.69w16.51--
5:55 PM605342.82-5.21wnw13.9--
4:55 PM598554.49-6.95wsw14.77--
3:55 PM637554.95-11.3wsw17.38--
2:55 PM627754.7-11.3wsw16.51--
1:55 PM627754.7-8.69wsw13.9--
12:55 PM617553.02-10.43wsw15.64--
11:55 AM617553.02-10.43wsw14.77--
10:55 AM607552.05-6.08sw9.56--
9:55 AM597852.15-6.08wsw8.69--
8:55 AM578050.89-5.21wsw7.82--
7:55 AM558349.93-0.87n6.08--
6:55 AM508946.89-2.61nw6.08--
5:55 AM508946.89-1.74nnw6.08--
4:55 AM518947.87-1.74nnw9.56--
3:55 AM519148.47-5.21wnw11.3--
2:55 AM528547.63-2.61wnw6.08--
1:55 AM508746.28-2.61n7.82--
12:55 AM528447.32-1.74nw7.82--
High: 62ºf @3:55 PM    Low: 49ºf @3:55 AM     Approx. Precipitation / Rain Total: in.
Time (PDT)Temp. (ºf)Humidity (%)Dew Point (ºf)Barometer (inHG)Wind Speed (mph)Wind DirectionWind Gust (mph)1hr. Precip / Rain Total (in.)Snow Depth
11:55 PM538147.33-0.87nnw8.69--
10:55 PM537846.33-3.48n6.95--
9:55 PM537846.33-2.61n6.08--
8:55 PM548348.95-3.48nw6.95--
7:55 PM558650.89-4.34wnw9.56--
6:55 PM568651.87-7.82w13.03--
5:55 PM607652.41-7.82wsw12.17--
4:55 PM627553.98-8.69wsw12.17--
3:55 PM627654.34-6.95wsw11.3--
2:55 PM627654.34-6.08wsw7.82--
1:55 PM627754.7-4.34ssw6.95--
12:55 PM627453.61-2.61sse4.34--
11:55 AM617753.73-3.48ese6.08--
10:55 AM617753.73-3.48ese6.08--
9:55 AM607050.18-2.61ese4.34--
8:55 AM607050.18-1.74s5.21--
7:55 AM557948.61-3.48n8.69--
6:55 AM508545.67-3.48ne10.43--
5:55 AM508645.98-5.21nne11.3--
4:55 AM518646.96-6.08n10.43--
3:55 AM498845.6-6.08n11.3--
2:55 AM508746.28-7.82n10.43--
1:55 AM508846.59-6.08nne9.56--
12:55 AM518747.27-6.95n9.56--
High: 63ºf @2:55 PM    Low: 49ºf @5:55 AM     Approx. Precipitation / Rain Total: in.
Time (PDT)Temp. (ºf)Humidity (%)Dew Point (ºf)Barometer (inHG)Wind Speed (mph)Wind DirectionWind Gust (mph)1hr. Precip / Rain Total (in.)Snow Depth
11:55 PM518546.65-5.21n7.82--
10:55 PM538448.3-4.34n7.82--
9:55 PM558048.94-4.34nnw7.82--
8:55 PM558149.28-6.08wnw9.56--
7:55 PM539150.44-6.08wnw9.56--
6:55 PM568551.55-6.95wsw9.56--
5:55 PM607752.77-6.95wsw13.03--
4:55 PM626047.95-7.82wsw13.03--
3:55 PM626650.51-9.56w14.77--
2:55 PM636751.86-9.56w15.64--
1:55 PM626951.71-11.3wsw14.77--
12:55 PM626951.71-6.95wsw9.56--
11:55 AM626851.31-5.21wsw7.82--
10:55 AM626951.71-5.21wsw8.69--
9:55 AM607050.18-6.08wsw8.69--
8:55 AM597350.36-4.34wsw7.82--
7:55 AM548148.3-4.34n9.56--
6:55 AM508746.28-6.08n9.56--
5:55 AM498945.9-6.08n8.69--
4:55 AM508746.28-5.21n9.56--
3:55 AM508846.59-6.95n9.56--
2:55 AM509147.48-5.21n8.69--
1:55 AM509147.48-5.21n6.08--
12:55 AM508846.59-2.61n8.69--
High: 63ºf @1:55 PM    Low: 51ºf @11:55 PM     Approx. Precipitation / Rain Total: in.
Time (PDT)Temp. (ºf)Humidity (%)Dew Point (ºf)Barometer (inHG)Wind Speed (mph)Wind DirectionWind Gust (mph)1hr. Precip / Rain Total (in.)Snow Depth
11:55 PM518747.27-4.34n7.82--
10:55 PM538347.98-1.74wnw7.82--
9:55 PM538448.3-3.48nw8.69--
8:55 PM548248.63-4.34nw9.56--
7:55 PM557848.27-6.08wnw11.3--
6:55 PM577749.86-8.69w15.64--
5:55 PM587249.02-8.69wnw16.51--
4:55 PM616950.75-11.3w22.59--
3:55 PM626750.91-13.03w19.99--
2:55 PM626851.31-13.9w20.86--
1:55 PM636551.04-13.9w19.12--
12:55 PM626750.91-10.43w17.38--
11:55 AM616448.73-10.43w16.51--
10:55 AM597049.23-10.43wsw14.77--
9:55 AM587349.39-6.08wsw8.69--
8:55 AM576746.15-4.34wsw8.69--
7:55 AM546140.86-4.34nne8.69--
6:55 AM516037.61-2.61wnw8.69--
5:55 AM516840.81-3.48nw11.3--
4:55 AM536139.91-3.48wnw7.82--
3:55 AM536340.75-3.48nnw10.43--
2:55 AM546140.86-6.08nnw12.17--
1:55 AM546642.9-3.48nw9.56--
12:55 AM546542.5-4.34nnw10.43--
High: 62ºf @2:55 PM    Low: 52ºf @6:55 AM     Approx. Precipitation / Rain Total: in.
Time (PDT)Temp. (ºf)Humidity (%)Dew Point (ºf)Barometer (inHG)Wind Speed (mph)Wind DirectionWind Gust (mph)1hr. Precip / Rain Total (in.)Snow Depth
11:55 PM546743.29-5.21nnw10.43--
10:55 PM536742.34-3.48nw9.56--
9:55 PM546944.06-5.21nw8.69--
8:55 PM547044.44-5.21wnw11.3--
7:55 PM556643.85-6.08nnw9.56--
6:55 PM567447.83-8.69w23.46--
5:55 PM596547.25-12.17w22.59--
4:55 PM586445.89-7.82wnw24.33--
3:55 PM616749.96-13.03w25.2--
2:55 PM626248.83-13.03w22.59--
1:55 PM586947.89-10.43wnw22.59--
12:55 PM596446.84-15.64w23.46--
11:55 AM616448.73-13.9w24.33--
10:55 AM606347.37-13.03w20.86--
9:55 AM615946.57-7.82wnw15.64--
8:55 AM586445.89-7.82nw16.51--
7:55 AM557045.4-8.69nw14.77--
6:55 AM527443.97-6.08nnw16.51--
5:55 AM527343.62-6.08nw13.03--
4:55 AM527343.62-6.08nw15.64--
3:55 AM527142.89-5.21nw19.12--
2:55 AM537545.29-10.43wnw19.99--
1:55 AM537244.22-6.08nw16.51--
12:55 AM537143.85-8.69nw18.25--
High: 63ºf @1:55 PM    Low: 54ºf @11:55 PM     Approx. Precipitation / Rain Total: in.
Time (PDT)Temp. (ºf)Humidity (%)Dew Point (ºf)Barometer (inHG)Wind Speed (mph)Wind DirectionWind Gust (mph)1hr. Precip / Rain Total (in.)Snow Depth
11:55 PM547646.61-7.82wnw19.12--
10:55 PM546944.06-11.3wnw19.12--
9:55 PM556945.02-10.43wnw23.46--
8:55 PM557547.22-9.56wnw19.99--
7:55 PM557747.92-8.69nw25.2--
6:55 PM567347.47-9.56wnw19.99--
5:55 PM606849.41-8.69w25.2--
4:55 PM616448.73-13.9wnw25.2--
3:55 PM626449.68-13.9w24.33--
2:55 PM636450.63-15.64w23.46--
1:55 PM636651.46-14.77w23.46--
12:55 PM636450.63-13.03w19.99--
11:55 AM627152.48-12.17w19.12--
10:55 AM608455.15-8.69w17.38--
9:55 AM589255.69-8.69w15.64--
8:55 AM599156.37-6.08ene15.64--
7:55 AM569855.44-3.48ene10.43--
6:55 AM569654.87-4.34ene8.69--
5:55 AM579254.7-6.08ene8.69--
4:55 AM558851.51-6.08n9.56--
3:55 AM549051.13-5.21n7.82--
2:55 AM558951.82-4.34n5.21--
1:55 AM578853.48-2.61nnw6.08--
12:55 AM578753.17-3.48nw6.95--
High: 65ºf @1:55 PM    Low: 51ºf @3:55 AM     Approx. Precipitation / Rain Total: in.
Time (PDT)Temp. (ºf)Humidity (%)Dew Point (ºf)Barometer (inHG)Wind Speed (mph)Wind DirectionWind Gust (mph)1hr. Precip / Rain Total (in.)Snow Depth
11:55 PM578552.53-3.48wnw6.08--
10:55 PM578151.23-1.74nw5.21--
9:55 PM567949.58-2.61wnw6.08--
8:55 PM568752.18-2.61wnw8.69--
7:55 PM588754.15-5.21w10.43--
6:55 PM598654.82-5.21w9.56--
5:55 PM627754.7-6.95wsw10.43--
4:55 PM647355.17-6.08wsw8.69--
3:55 PM657155.36-6.08wsw7.82--
2:55 PM647254.79-4.34sw6.95--
1:55 PM657155.36-3.48s5.21--
12:55 PM628055.76-2.61sse6.08--
11:55 AM637454.58-2.61se6.08--
10:55 AM627754.7-3.48ese6.08--
9:55 AM598654.82-4.34ese6.08--
8:55 AM569053.11-3.48nne7.82--
7:55 AM549251.73-2.61n7.82--
6:55 AM529350.04-4.34nne8.69--
5:55 AM529249.75-4.34nne7.82--
4:55 AM519349.05-6.95n9.56--
3:55 AM519349.05-4.34nne9.56--
2:55 AM519349.05-4.34ne7.82--
1:55 AM529350.04-4.34nne7.82--
12:55 AM529249.75-4.34nne6.95--
High: 64ºf @1:55 PM    Low: 52ºf @5:55 AM     Approx. Precipitation / Rain Total: in.
Time (PDT)Temp. (ºf)Humidity (%)Dew Point (ºf)Barometer (inHG)Wind Speed (mph)Wind DirectionWind Gust (mph)1hr. Precip / Rain Total (in.)Snow Depth
11:55 PM549151.43-6.08n7.82--
10:55 PM549151.43-4.34n7.82--
9:55 PM559152.42-3.48n5.21--
8:55 PM559152.42-2.61nnw6.95--
7:55 PM579054.09-6.08w8.69--
6:55 PM588553.51-5.21w9.56--
5:55 PM617854.09-6.08wsw10.43--
4:55 PM637454.58-7.82wsw11.3--
3:55 PM637354.2-7.82wsw9.56--
2:55 PM647154.4-5.21sw6.95--
1:55 PM647254.79-4.34s6.08--
11:55 AM617854.09-3.48se7.82--
10:55 AM598253.51-4.34ese6.95--
9:55 AM588453.19-3.48ene7.82--
8:55 AM569053.11-3.48ene12.17--
7:55 AM539250.74-7.82n13.03--
6:55 AM539351.03-6.08n10.43--
5:55 AM529450.33-6.95n11.3--
4:55 AM539451.32-5.21n8.69--
3:55 AM539351.03-2.61ne8.69--
2:55 AM539250.74-6.08n9.56--
1:55 AM539451.32-3.48nne5.21--
12:55 AM529450.33-4.34nne9.56--
High: 57ºf @6:55 PM    Low: 53ºf @11:55 PM     Approx. Precipitation / Rain Total: in.
Time (PDT)Temp. (ºf)Humidity (%)Dew Point (ºf)Barometer (inHG)Wind Speed (mph)Wind DirectionWind Gust (mph)1hr. Precip / Rain Total (in.)Snow Depth
11:55 PM539551.61-4.34ene9.56--
10:55 PM559453.3-4.34n6.08--
9:55 PM559453.3-2.61nnw5.21--
8:55 PM569454.3-2.61nw5.21--
7:55 PM559353.01-3.48wnw6.08--
6:55 PM578853.48-5.21wsw7.82--
Past Weather Disclaimer Note regarding "Approx. Precipitation / Rain Total"

Currently

Mostly Cloudy 58°F
30.12in
Barometer
90%
Humidity
South 6.9mph
Wind
Mostly Cloudy

Past Weather Nearby

More Local Information

Bookmark and Share